星链-30897 (STARLINK-30897 )

导读

STARLINK-30897是美国太空探索技术公司星链互联网卫星星座的一员,于2023年11月18日发射入轨,服务全球卫星互联网通信,为偏远地区、海洋空域等场景提供低延迟宽带网络覆盖,星链项目依靠批量组网实现服务,该卫星是星座组网扩容的组成部分,延续星链低轨卫星通信的技术路线。

基本信息
目录编号:
58360
目录名称:
STARLINK-30897
国际标识:
2023-177K
轨道中心:
EARTH
卫星名称:
星链-30897
卫星全名:
星链-30897 (STARLINK-30897 )
卫星状态:
在轨 (已飞行942 天)
发射日期:
2023-11-18 UTC
国别 :
美国 (US)
星等 :
--
轨道信息
数据来源 国际轨道数据 AOE轨道数据
星历时间 2026-06-17T14:16:52+0800
10小时前
查看轨道信息
2026-06-17T02:00:00+0800
22小时前
查看轨道信息
半长轴 6861.186km 6861.2km
偏心率 0.000122 0.0001291
轨道倾角 43.000° 43.001°
近地点辐角 255.701° 259.335°
升交点赤经 162.907° 165.801°
平近点角 104.371° 163.369°
近地点 482.211km 482.177km
远地点 483.887km 483.949km
周期 94.267分钟 94.267分钟
每日圈数 15.275801 15.275754
详细信息
固有亮度:
5
最大亮度:
0.3
卫星平台:
Starlink v2.0 mini
覆盖范围:
全球
运营商:
太空探索技术公司
运营商所在国:
美国
制造商(研发单位):
太空探索技术公司
制造商所在国:
美国
使用方式:
暂无
卫星简介
星链(Starlink)计划是由太空探索技术公司(SpaceX)提出的一个巨型低轨卫星互联网星座项目,计划在2019年至2024年间在太空搭建由约1.2万颗卫星组成的“星链”网络,其中1584颗将部署在地球上空550千米处的近地轨道,并从2020年开始工作。该卫星仍在工作。
2D轨道图
3D轨道图
轨道高度分析图
轨道倾角分析图
轨道综合分析图
查看轨道综合分析图